Skip Page Navigation
NASA JPL Caltech
NASA Logo - Jet Propulsion Laboratory + View the NASA Portal
+ Center for Near-Earth Object Studies
JPL Home Earth Solar System Stars & Galaxies Technology
JPL Solar System Dynamics
BODIES ORBITS EPHEMERIDES TOOLS PHYSICAL DATA DISCOVERY FAQ SITE MAP
IMPORTANT: The SSD Announcement email list is now available. Major changes are coming in the near future, including possible hostname and/or URL changes. To be notified of such changes, subscribe to this email list.

Please visit this page for more details.


JPL Small-Body Database Browser
Search: [ help ]  
305100 (2007 VJ49)
Classification: Main-belt Asteroid          SPK-ID: 2305100
Ephemeris | Orbit Diagram | Orbital Elements | Mission Design | Physical Parameters | Discovery Circumstances ]

[ show orbit diagram ]
Orbital Elements at Epoch 2458600.5 (2019-Apr-27.0) TDB
Reference: JPL 13 (heliocentric ecliptic J2000)
 Element Value Uncertainty (1-sigma)   Units 
e .1791306166553168 7.7619e-08  
a 2.665783914322628 4.1743e-08 au
q 2.188260397880192 2.2255e-07 au
i 10.61756088828716 1.0419e-05 deg
node 27.5530118267837 4.258e-05 deg
peri 270.3701634021274 5.393e-05 deg
M 324.3204485634134 2.8293e-05 deg
tp 2458758.062450454447
(2019-Oct-01.56245045)
0.00012454 TDB
period 1589.775652432569
4.35
3.7341e-05
1.022e-07
d
yr
n .2264470458137612 5.3189e-09 deg/d
Q 3.143307430765065 4.9221e-08 au
  Orbit Determination Parameters
   # obs. used (total)      120  
   data-arc span      6185 days (16.93 yr)  
   first obs. used      2001-03-22  
   last obs. used      2018-02-26  
   planetary ephem.      DE431  
   SB-pert. ephem.      SB431-N16  
   condition code      0  
   norm. resid. RMS      .60588  
   source      ORB  
   producer      Otto Matic  
   solution date      2018-Mar-06 01:50:00  

Additional Information
 Earth MOID = 1.20382 au 
 Jupiter MOID = 2.17307 au 
 T_jup = 3.336 
[ show covariance matrix ]

Ephemeris | Orbit Diagram | Orbital Elements | Mission Design | Physical Parameters | Discovery Circumstances ]

Physical Parameter Table
Parameter Symbol Value Units Sigma Reference Notes
absolute magnitude H 16.4   n/a MPO440437  

305100 (2007 VJ49)          Discovered 2007-Nov-01 by Spacewatch at Kitt Peak
Reference: 20111110/Numbers.arcLast Updated: 2011-11-14
Ephemeris | Orbit Diagram | Orbital Elements | Mission Design | Physical Parameters | Discovery Circumstances ]
ABOUT SSD CREDITS/AWARDS PRIVACY/COPYRIGHT GLOSSARY LINKS
FirstGov
(server date/time)  
NASA Home Page
Site Manager:   Ryan S. Park
Webmaster  Alan B. Chamberlin